Lyndonville, VT

2:27 PM EST on November 13, 2019 (GMT -0500)
Lyndonville

Weather History for KCDA - October, 2019

Change the Weather History Date:

Wednesday, October 23, 2019

  Actual Average (K1V4) Record (K1V4)
Temperature  
Mean Temperature 52 °F -  
Max Temperature 59 °F 49 °F 67 °F (2017)
Min Temperature 47 °F 31 °F 24 °F (2000)
Degree Days  
Heating Degree Days 12    
Growing Degree Days 2 (Base 50)    
Moisture  
Dew Point 42 °F    
Average Humidity 74    
Maximum Humidity 98    
Minimum Humidity 50    
Precipitation  
Precipitation 0.00 in - - ()
Sea Level Pressure  
Sea Level Pressure 29.88 in    
Wind  
Wind Speed 5 mph (SW)    
Max Wind Speed 15 mph    
Max Gust Speed 22 mph    
Visibility 8 miles    
Events Fog , Rain    
Averages and records for this station are not official NWS values.
T = Trace of Precipitation, MM = Missing Value Source: NWS Daily Summary

Daily Weather History Graph

Daily Weather History Graph

Search for Another Location

Airport or City:

Astronomy

Oct. 23, 2019 Rise Set
Actual Time 7:13 AM EDT 5:50 PM EDT
Civil Twilight 6:43 AM EDT 6:20 PM EDT
Nautical Twilight 6:09 AM EDT 6:54 PM EDT
Astronomical Twilight 5:35 AM EDT 7:28 PM EDT
Moon 1:10 AM EDT (10/23) 3:55 PM EDT (10/23)
Length of Visible Light 11h 36m
Length of Day
10h 37m
Waning Crescent, 27% of the Moon is Illuminated
Oct 23
Waning Crescent
Oct 27
New
Nov 4
First Quarter
Nov 12
Full
Nov 19
Last Quarter

Hourly Weather History & Observations

Time (EDT) Temp. Dew Point Humidity Pressure Visibility Wind Dir Wind Speed Gust Speed Precip Events Conditions
12:19 AM 50.2 °F 46.4 °F 87% 29.90 in 7.0 mi East 5.8 mph - N/A Rain Rain
12:36 AM 49.6 °F 46.4 °F 89% 29.89 in 10.0 mi ESE 8.1 mph - N/A Rain Light Rain
12:59 AM 49.3 °F 46.4 °F 90% 29.89 in 10.0 mi ESE 8.1 mph - N/A Rain Light Rain
1:16 AM 49.1 °F 46.4 °F 90% 29.87 in 10.0 mi East 5.8 mph - N/A Rain Rain
1:56 AM 48.7 °F 46.4 °F 92% 29.86 in 10.0 mi East 3.5 mph - N/A Rain Light Rain
2:19 AM 49.1 °F 46.4 °F 90% 29.84 in 10.0 mi East 5.8 mph - N/A   Drizzle
2:36 AM 49.3 °F 46.4 °F 90% 29.83 in 10.0 mi ESE 4.6 mph - N/A   Light Drizzle
2:59 AM 50.0 °F 46.6 °F 88% 29.82 in 10.0 mi ESE 5.8 mph - N/A Rain Light Rain
3:16 AM 50.0 °F 46.6 °F 88% 29.82 in 7.0 mi SE 5.8 mph - N/A   Drizzle
3:39 AM 48.4 °F 46.8 °F 94% 29.81 in 5.0 mi SSW 5.8 mph - N/A Rain Light Rain
3:56 AM 48.4 °F 47.3 °F 96% 29.83 in 4.0 mi SW 8.1 mph - N/A Rain Rain
4:19 AM 48.4 °F 47.3 °F 96% 29.84 in 4.0 mi WSW 5.8 mph - N/A Rain Rain
4:36 AM 48.4 °F 47.5 °F 97% 29.83 in 4.0 mi WSW 3.5 mph - N/A Rain Rain
4:59 AM 48.4 °F 47.7 °F 97% 29.84 in 4.0 mi Calm Calm - N/A Rain Heavy Rain
5:16 AM 48.4 °F 47.7 °F 97% 29.84 in 3.0 mi Calm Calm - N/A Rain Heavy Rain
5:39 AM 48.4 °F 47.7 °F 97% 29.83 in 1.2 mi NE 3.5 mph - N/A Rain Light Rain
5:56 AM 48.4 °F 47.7 °F 97% 29.83 in 1.0 mi North 6.9 mph - N/A Rain Rain
6:19 AM 48.4 °F 47.7 °F 97% 29.83 in 1.5 mi NNE 3.5 mph - N/A   Drizzle
6:59 AM 48.4 °F 47.7 °F 97% 29.83 in 1.8 mi Calm Calm - N/A Rain Rain
7:16 AM 48.4 °F 47.7 °F 97% 29.84 in 5.0 mi Calm Calm - N/A Rain Light Rain
8:19 AM 48.7 °F 48.2 °F 98% 29.82 in 10.0 mi Calm Calm - N/A   Overcast
8:36 AM 49.1 °F 48.4 °F 97% 29.83 in 10.0 mi Calm Calm - N/A   Overcast
8:59 AM 49.3 °F 48.6 °F 97% 29.82 in 10.0 mi Calm Calm - N/A   Overcast
9:16 AM 49.6 °F 48.9 °F 97% 29.82 in 10.0 mi Calm Calm - N/A   Overcast
9:39 AM 50.2 °F 49.1 °F 96% 29.82 in 0.2 mi Calm Calm - N/A Fog Fog
9:56 AM 50.2 °F 49.5 °F 97% 29.82 in 1.0 mi Calm Calm - N/A   Overcast
10:19 AM 50.4 °F 49.6 °F 97% 29.84 in 10.0 mi Calm Calm - N/A   Overcast
10:36 AM 51.1 °F 50.2 °F 97% 29.84 in 10.0 mi Calm Calm - N/A   Overcast
10:59 AM 52.5 °F 49.1 °F 88% 29.84 in 10.0 mi Calm Calm - N/A   Overcast
11:16 AM 52.7 °F 49.3 °F 88% 29.83 in 10.0 mi Calm Calm - N/A   Overcast
11:39 AM 54.3 °F 47.1 °F 77% 29.83 in 10.0 mi Calm Calm - N/A   Scattered Clouds
11:56 AM 55.4 °F 46.2 °F 71% 29.84 in 10.0 mi WNW 6.9 mph - N/A   Scattered Clouds
12:19 PM 57.7 °F 46.4 °F 66% 29.82 in 10.0 mi West 8.1 mph - N/A   Scattered Clouds
12:36 PM 56.7 °F 44.6 °F 64% 29.82 in 10.0 mi West 5.8 mph - N/A   Mostly Cloudy
12:59 PM 57.7 °F 43.3 °F 59% 29.82 in 10.0 mi SSW 8.1 mph 17.3 mph N/A   Scattered Clouds
1:16 PM 56.3 °F 41.5 °F 58% 29.82 in 10.0 mi WSW 8.1 mph - N/A   Scattered Clouds
1:39 PM 56.7 °F 41.2 °F 56% 29.82 in 10.0 mi WSW 10.4 mph 18.4 mph N/A   Overcast
1:56 PM 55.8 °F 41.2 °F 58% 29.82 in 10.0 mi WSW 13.8 mph 18.4 mph N/A   Mostly Cloudy
2:19 PM 58.8 °F 40.5 °F 51% 29.81 in 10.0 mi WSW 11.5 mph - N/A   Scattered Clouds
2:35 PM 58.3 °F 39.7 °F 50% 29.83 in 10.0 mi West 11.5 mph 21.9 mph N/A   Mostly Cloudy
2:59 PM 56.3 °F 38.3 °F 51% 29.84 in 10.0 mi West 12.7 mph 19.6 mph N/A   Mostly Cloudy
3:16 PM 55.8 °F 38.3 °F 52% 29.83 in 10.0 mi West 15.0 mph 19.6 mph N/A   Scattered Clouds
3:39 PM 55.6 °F 38.8 °F 53% 29.84 in 10.0 mi West 10.4 mph - N/A   Clear
3:56 PM 54.7 °F 36.7 °F 51% 29.85 in 10.0 mi SW 13.8 mph 20.7 mph N/A   Clear
4:19 PM 54.5 °F 37.0 °F 52% 29.86 in 10.0 mi SW 11.5 mph 20.7 mph N/A   Mostly Cloudy
4:36 PM 55.4 °F 37.8 °F 52% 29.87 in 10.0 mi SW 8.1 mph 18.4 mph N/A   Scattered Clouds
4:59 PM 54.7 °F 37.8 °F 53% 29.88 in 10.0 mi WSW 8.1 mph 18.4 mph N/A   Clear
5:16 PM 53.8 °F 38.3 °F 56% 29.89 in 10.0 mi WSW 8.1 mph - N/A   Clear
5:39 PM 52.2 °F 38.5 °F 60% 29.90 in 10.0 mi WSW 5.8 mph - N/A   Clear
5:56 PM 51.4 °F 38.5 °F 61% 29.91 in 10.0 mi SW 3.5 mph - N/A   Clear
6:19 PM 50.5 °F 37.9 °F 62% 29.92 in 10.0 mi SW 3.5 mph - N/A   Clear
6:36 PM 49.1 °F 37.8 °F 65% 29.93 in 10.0 mi SW 3.5 mph - N/A   Clear
6:59 PM 48.4 °F 36.9 °F 64% 29.94 in 10.0 mi WSW 3.5 mph - N/A   Clear
7:16 PM 47.5 °F 36.7 °F 66% 29.95 in 10.0 mi WSW 4.6 mph - N/A   Clear
7:39 PM 49.1 °F 34.7 °F 58% 29.96 in 10.0 mi SSW 4.6 mph - N/A   Scattered Clouds
7:56 PM 48.6 °F 35.1 °F 60% 29.97 in 10.0 mi SW 4.6 mph - N/A   Overcast
8:19 PM 49.1 °F 34.5 °F 57% 29.98 in 10.0 mi WSW 4.6 mph - N/A   Overcast
8:36 PM 49.6 °F 34.9 °F 57% 29.99 in 10.0 mi WSW 6.9 mph 17.3 mph N/A   Overcast
8:59 PM 50.0 °F 35.2 °F 57% 30.00 in 10.0 mi WSW 8.1 mph 16.1 mph N/A   Overcast
9:16 PM 48.6 °F 35.1 °F 60% 30.01 in 10.0 mi West 4.6 mph - N/A   Mostly Cloudy
9:39 PM 49.1 °F 35.6 °F 60% 30.01 in 10.0 mi SSW 4.6 mph - N/A   Overcast
9:56 PM 48.4 °F 35.4 °F 61% 30.02 in 10.0 mi South 6.9 mph - N/A   Overcast
10:19 PM 48.7 °F 35.1 °F 59% 30.03 in 10.0 mi SW 4.6 mph - N/A   Mostly Cloudy
10:36 PM 48.6 °F 34.5 °F 58% 30.04 in 10.0 mi SSW 5.8 mph - N/A   Overcast
10:59 PM 49.1 °F 33.4 °F 55% 30.04 in 10.0 mi SW 5.8 mph - N/A   Overcast
11:16 PM 49.1 °F 32.9 °F 54% 30.05 in 10.0 mi WSW 5.8 mph - N/A   Overcast
11:39 PM 48.7 °F 33.4 °F 56% 30.05 in 10.0 mi SW 9.2 mph - N/A   Overcast
11:56 PM 49.1 °F 33.3 °F 54% 30.05 in 10.0 mi SSW 8.1 mph 16.1 mph N/A   Overcast